Flag for Hungary Weather past 2 weeks in Sopron, Hungary

Now
70 °F

Mild.


Feels Like: 74 °F
Forecast: 61 / 85 °F
Wind: 2 mph from Northwest

Location: Eisenstadt

Current Time: Jul 3, 2015 at 1:21:48 AM

Latest Report: Jul 3, 2015 at 12:00 AM


Visibility: N/A

Pressure: 30.22 "Hg

Humidity: 68%

Dew point: 59 °F

Location of SopronLocation

Historic Weather in Sopron — Graph

°F

Sopron temperature yesterday

Maximum temperature yesterday: 87 °F (at 3:00 PM)
Minimum temperature yesterday: 64 °F (at 5:00 AM)
Average temperature yesterday: 76 °F

Past Weeks' High & Low Weather Summary

 TemperatureHumidityPressure
High87 °F (Jul 2, 3:00 PM)95% (Jun 23, 5:00 AM)30.24 "Hg (Jun 23, 5:00 AM)
Low51 °F (Jun 21, 6:00 AM)31% (Jun 30, 4:00 PM)29.77 "Hg (Jun 23, 4:00 AM)
Average66 °F61%30.05 "Hg
* Reported Midnight between Jun 17 and Jun 18 — Jul 2 11:00 PM, Sopron, Weather by CustomWeather, © 2015

Note: Actual official high and low records may vary slightly from our data, if they occured in-between our weather recording intervals... More about our weather records

Advertising

Sopron weather history for previous 24 hours

 ConditionsComfort  
Time TempWeatherWind HumidityBarometerVisibility
11:00 PM
Thu, Jul 2
70 °FClear.5 mph69%30.22 "Hg12 mi
10:00 PM71 °FMild.5 mph68%30.20 "HgN/A
9:00 PM74 °FMild.5 mph64%30.18 "HgN/A
8:00 PM78 °FSunny.2 mph60%30.16 "Hg12 mi
7:00 PM85 °FSunny.1 mph35%30.15 "Hg12 mi
6:00 PM86 °FPleasantly warm.2 mph35%30.15 "HgN/A
5:00 PM86 °FPassing clouds.3 mph35%30.15 "Hg12 mi
4:00 PM87 °FPleasantly warm.2 mph35%30.15 "HgN/A
3:00 PM87 °FPleasantly warm.1 mph36%30.16 "HgN/A
2:00 PM84 °FPleasantly warm.3 mph39%30.17 "HgN/A
1:00 PM84 °FPleasantly warm.5 mph39%30.18 "HgN/A
12:00 PM82 °FWarm.5 mph43%30.19 "HgN/A
11:00 AM79 °FWarm.3 mph49%30.18 "HgN/A
10:00 AM78 °FWarm.3 mph49%30.18 "HgN/A
9:00 AM75 °FMild.3 mph51%30.19 "HgN/A
8:00 AM73 °FMild.1 mph57%30.19 "HgN/A
7:00 AM67 °FScattered clouds.1 mph73%30.19 "Hg12 mi
6:00 AM65 °FPartly sunny.2 mph72%30.18 "Hg12 mi
5:00 AM64 °FPassing clouds.3 mph75%30.18 "Hg12 mi
4:00 AM65 °FMild.1 mph71%30.17 "HgN/A
3:00 AM68 °FMild.No wind66%30.16 "HgN/A
2:00 AM73 °FPassing clouds.3 mph50%30.16 "Hg12 mi
1:00 AM69 °FMild.3 mph69%30.15 "HgN/A
Weather by CustomWeather, © 2015

See weather overviewHow to use our weather pages